STARLINK-38212, 100267

Orbit data source: Space-Track

STARLINK-38212, 100267 is a payload satellite owned by SpaceX/Seattle (US) in SSO that was launched on Sat, 08 Aug 2026 UTC launched from the Air Force Western Test Range (AFWTR). Payload-class satellites include a variety of spacecraft equipped with specific instruments for various scientific and technological missions. These include communications satellites like Starlink; space stations such as the ISS; scientific satellites like the Hubble; Earth observation satellites from companies like Planet Labs, Umbra, and HawkEye 360; GPS; miniature CubeSats for education and research; and military/defense satellites.

Loading next visibility...
Identifier
100267, 2026-181X
Orbit
SSO
Country
Flag of USUS
Related business
Manufacturer
SpaceX/Seattle
Mission
Operational spacecraft
Bus & Motor
STARLINK V2MO, Unknown motor
Mass
575 kg wet, ~530 kg dry
Launch date (UTC)
2026-08-08 (1 month ago)
Launch vehicle
Unknown
Launch site
Air Force Western Test Range (AFWTR)
Object type
Payload
Rocket body
Debris
Shape & HBR
BOX + PAN, 17.7 m
Radar Cross Section
RCS unknown

Expand to show TLE details & history
Last TLE update: 7 hours ago

TLE from 7 hours ago
0 STARLINK-38212
1 A0267U 26181X   26249.59354934  .00152817  00000-0  10050-2 0  9990
2 A0267  97.2847 292.5406 0000947  36.4351 323.6978 15.75241361  5765
Epoch: 2026-09-06T14:14Z
TLE epoch observation values (Epoch: 2026-09-06T14:14:42.662Z)
Latitude
-0.00011°
Longitude
93.17642°
Altitude
346.6 km
Speed
7.701 km/s
True Right ascension
19h 30m 09s
True Declination
0° 00' 00"
Sunlit
Object was in full shadow at epoch
Visualization orbit readout
Latitude
Unknown
Longitude
Unknown
Altitude
Unknown
Speed
Unknown
Apparent Right ascension
Unknown
Apparent Declination
Unknown
Sunlit
N/A
Visualization observer readout
Local Sidereal Time
13:29:13
Azimuth
Unknown
Elevation
Unknown
Doppler factor
Unknown
Orbital elements
Apogee altitude
341.468 km
Perigee altitude
340.195 km
Semi-major axis
6,718.969 km
Eccentricity
0.00009
Inclination
97.2847°
RAAN
292.5406°
Arg. of periapsis
36.4351°
True anomaly
323.69137°
Mean anomaly
323.6978°
Eccentric anomaly
323.69459°
Mean motion
3.94084 °/min
Orbital period
91.35 mins
BSTAR
0.001005
Loading maneuver chart data...
Computing Atmospheric mass density...
Loading historical data...
Loading historical data...
Loading historical data...
Loading historical data...
Loading historical data...
Loading historical data...
Loading historical data...

Documentation

Showing up to 5 results
|